473  
ASUS42 KTBW 260517  
RWRFL  
FLORIDA REGIONAL WEATHER ROUNDUP  
NATIONAL WEATHER SERVICE TAMPA BAY RUSKIN FL  
100 AM EDT MON SEP 26 2016  
 
NOTE: "FAIR" INDICATES FEW OR NO CLOUDS BELOW 12,000 FEET WITH NO  
SIGNIFICANT WEATHER AND/OR S TO VISIBILITY
.  
 
FLZ001>010-012>015-112-114-115-260600-  
PANHANDLE FLORIDA  
 
CITY SKY/WX TMP DP RH WIND PRES REMARKS
 
PENSACOLA PTCLDY 76 70 82 CALM 30.00S  
PENSACOLA NAS CLOUDY 74 71 91 NW3 30.00S  
MILTON NAS PTCLDY 71 70 96 CALM 30.02  
CRESTVIEW CLEAR 71 69 93 NE3 30.04S  
DUKE FIELD FAIR 72 68 87 MISG 30.02R  
VALPARAISO MOCLDY 75 67 75 N3 30.01S  
MARY ESTHER CLOUDY 74 69 82 N6 30.00R  
TRI COUNTY FAIR 69 67 93 CALM 30.05S  
PANAMA CITY NOT AVBL  
TYNDALL AFB CLEAR 75 70 85 E3 30.02F  
APALACHICOLA CLEAR 74 73 97 E6 30.02S  
 
STATION/POSITION SKY/WX TEMP WIND PRES WAVE SWELL
 
AIR SEA DIR/SP/G HT/PER HT/PER  
(F) (DEG/KT/KT) (MB) (FT/S) (FT/S)  
30.1N 87.6W 83 86 60/ 2/ 4 1016.1S 0  
29.2N 88.2W 83 86 310/ 2/ 2 1015.6F  
28.8N 86.0W 83 86 1016.3F 1  
PANAMA CITY BEAC 78 87 40/ 4/ 7 1017.0R  
TOWER C 83 CALM / 1 1016.9F  
28.5N 84.5W 84 85 60/ 6/ 6 1016.1F 0  
 

 
FLZ011-016>038-118-127-128-134-139-239-260600-  
NORTH FLORIDA  
 
CITY SKY/WX TMP DP RH WIND PRES REMARKS
 
MARIANNA PTCLDY 70 70 100 S3 30.03F  
TALLAHASSEE CLEAR 75 72 90 E6 30.04S  
PERRY MOCLDY 73 72 94 NE3 30.05S  
CROSS CITY PTCLDY 73 73 100 CALM 30.02F  
LAKE CITY MOCLDY 70 70 100 CALM 30.05S FOG  
GAINESVILLE PTCLDY 74 71 91 NW5 30.03F  
WILLISTON CLEAR 75 73 94 MISG 30.03F  
PALATKA FAIR 72 72 100 NW3 30.02F  
MAYPORT NAS CLEAR 79 74 84 NE7 30.01F  
JACKSONVILLE MOCLDY 74 73 97 NW8 30.02F  
JAX NAS MOCLDY 81 73 76 NW6 30.03S  
FERNANDINA BEA FAIR 81 73 78 NE5 30.01S  
ST AUGUSTINE PTCLDY 75 72 90 W7 30.01F  
PALM COAST FAIR N/A N/A N/A MISG 30.01F  
 
STATION/POSITION SKY/WX TEMP WIND PRES WAVE SWELL
 
AIR SEA DIR/SP/G HT/PER HT/PER  
(F) (DEG/KT/KT) (MB) (FT/S) (FT/S)  
SHELL POINT 76 50/ 4/ 8 1015.9  
KEATON BEACH 76 120/ 5/ 6 1016.9F  
CEDAR KEY 80 120/ 13/ 14 1017.2F  
FERNANDINA 80 85 50/ 1/ 4 1016.6F  
30.7N 81.3W 83 N/A 4/ 5 2/11  
MAYPORT 81 84 70/ 8/ 12 1016.9F  
31.4N 80.9W 82 82 80/ 14/ 16 1016.6R 4/ 5 2/ 9  
ST AUGUSTINE 76 84 270/ 6/ 7 1017.0F  
 

 
FLZ040-043>046-052-053-057-058-063-144-260600-  
INTERIOR CENTRAL FLORIDA  
 
CITY SKY/WX TMP DP RH WIND PRES REMARKS
 
OCALA CLOUDY 73 70 88 CALM 30.02F  
THE VILLAGES N/A 77 77 100 CALM 29.92F  
LEESBURG CLOUDY 78 73 84 E6 30.01F  
SANFORD PTCLDY 76 72 87 CALM 30.01F  
ORLANDO EXEC MOCLDY 77 75 93 CALM 30.02S  
ORLANDO INTL CLOUDY 76 74 93 CALM 30.02S  
KISSIMMEE MOCLDY 79 76 90 CALM 30.03R  
WINTER HAVEN CLOUDY 79 71 76 SE5 30.03F  
LAKELAND CLOUDY 75 73 94 CALM 30.02F  
BARTOW MOCLDY 75 75 100 CALM 30.02F  
OKEECHOBEE PTCLDY 73 72 94 CALM 30.02S  
 

 
FLZ041-047-054-059-064-141-147-260600-  
EAST CENTRAL FLORIDA  
 
CITY SKY/WX TMP DP RH WIND PRES REMARKS
 
DAYTONA BEACH PTCLDY 74 72 93 W5 30.01F  
DELAND PTCLDY 75 73 94 W3 30.01F  
JFK SPACE CTR CLEAR 73 71 95 CALM 29.99F  
CAPE CANAVERAL CLEAR 74 71 92 E1 29.99F  
PATRICK AFB PTCLDY 80 75 82 S7 30.00F  
MELBOURNE PTCLDY 77 75 93 SW3 30.00F  
VERO BEACH MOCLDY 78 73 84 SW3 30.02F  
FT PIERCE CLOUDY 75 74 96 CALM 30.01F  
STUART MOCLDY 81 73 78 SW3 30.02S  
 
STATION/POSITION SKY/WX TEMP WIND PRES WAVE SWELL
 
AIR SEA DIR/SP/G HT/PER HT/PER  
(F) (DEG/KT/KT) (MB) (FT/S) (FT/S)  
28.5N 80.2W 82 84 270/ 2/ 4 1016.4F  
TRIDENT PIER 77 85 280/ 1/ 2 1016.6F  
28.4N 80.5W 85 N/A 1/10  
27.5N 80.2W 85 N/A 2/11 2/11  
 

 
FLZ050-056-061-142-242-148-248-149-249-151-251-155-255-  
160-260-260600-  
WEST CENTRAL FLORIDA  
 
CITY SKY/WX TMP DP RH WIND PRES REMARKS
 
CRYSTAL RIVER FAIR 72 68 88 CALM 30.01F  
INVERNESS FAIR 70 70 100 CALM 30.02F  
BROOKSVILLE CLOUDY 73 71 93 CALM 30.02S  
CLEARWATER AIR FAIR 73 72 94 E3 30.00F  
ST PETE CLEARW CLEAR 75 74 96 E3 30.00F  
TAMPA INTL MOCLDY 79 75 87 N6 30.01F  
TAMPA EXEC CLOUDY 79 73 83 CALM 30.01F  
PLANT CITY CLOUDY 77 77 100 W3 30.03F  
MACDILL AFB CLEAR 75 74 97 NE1 29.99F  
PETER O KNIGHT PTCLDY 79 77 94 NE6 30.01F  
ST PETERSBURG CLEAR 80 73 79 S8 29.97F  
SARASOTA CLEAR 75 71 87 CALM 29.98F  
VENICE FAIR 75 72 88 E7 30.01S  
 
STATION/POSITION SKY/WX TEMP WIND PRES WAVE SWELL
 
AIR SEA DIR/SP/G HT/PER HT/PER  
(F) (DEG/KT/KT) (MB) (FT/S) (FT/S)  
27.3N 84.2W 86 N/A 1  
CLEARWATER BEACH 78 87 80/ 5/ 8 1016.7R  
MIDDLE TAMPA BAY 100/ 6/ 8 1017.0R  
VENICE 76 87 90/ 8/ 9 1015.4F  
 

 
FLZ066-069-070-075>078-162-262-165-265-260600-  
SOUTHWEST FLORIDA AND KEYS  
 
CITY SKY/WX TMP DP RH WIND PRES REMARKS
 
PUNTA GORDA MOCLDY 75 74 96 E5 30.02F  
FT MYERS MOCLDY 76 74 93 NE6 30.00R  
SOUTHWEST INTL PTCLDY 76 73 91 NE6 30.01R  
NAPLES PTCLDY 77 73 87 CALM 29.99F  
MARATHON MOCLDY 83 76 79 SE7 29.97F  
KEY WEST NAS MOCLDY 83 75 77 SE8 29.97F  
KEY WEST INTL CLOUDY 84 78 82 SE8 29.97F HX 95  
 
STATION/POSITION SKY/WX TEMP WIND PRES WAVE SWELL
 
AIR SEA DIR/SP/G HT/PER HT/PER  
(F) (DEG/KT/KT) (MB) (FT/S) (FT/S)  
NAPLES 88 1015.6F  
26.0N 85.6W 84 86 110/ 4/ 6 1015.4F 1  
DRY TORTUGAS 84 150/ 8/ 9 1015.0F  
SAND KEY 84 180/ 4/ 4 1015.4F  
LONG KEY 81 87 110/ 14/ 15 1015.8F  
MOLASSES REEF 83 85 110/ 10/ 11 1015.2  
 

 
FLZ067-068-071>074-168-172>174-260600-  
SOUTHEAST FLORIDA  
 
CITY SKY/WX TMP DP RH WIND PRES REMARKS
 
W PALM BEACH PTCLDY 81 71 71 CALM 30.00F  
FT LAUDER-EXEC CLEAR 78 72 81 CALM 29.99F  
FT LAUDERDALE PTCLDY 81 73 76 SE6 29.98F  
POMPANO BEACH CLEAR 80 72 76 E5 29.99F  
PEMBROKE PINES PTCLDY 79 73 82 CALM 30.00F  
OPA LOCKA CLOUDY 79 73 82 E3 29.99F  
MIAMI MOCLDY 80 74 81 E5 29.99F  
WEST KENDALL PTCLDY 77 74 90 CALM 29.98F  
HOMESTEAD CLOUDY 79 75 87 SE3 29.98F  
 
STATION/POSITION SKY/WX TEMP WIND PRES WAVE SWELL
 
AIR SEA DIR/SP/G HT/PER HT/PER  
(F) (DEG/KT/KT) (MB) (FT/S) (FT/S)  
PORT EVERGLADES 82 120/ 5/ 9 1015.7F  
VIRGINIA KEY 83 91 120/ 5/ 8 1015.9F  
LAKE WORTH 140/ 9/ 11 N/A  
FOWEY ROCKS 82 85 110/ 11/ 12 1015.9F  
SETTLEMENT POINT 80 130/ 5/ 6 1016.6F  
 

 
 
 
 
CLICK HERE TO GO TO PREVIOUS BULLETINS.

The Nexlab FL Page Main Text Page